Location: Ash Swamp
(41.5170°N, 74.6157°W)
Time: 17:24:08
(UTC+00:00)

Cosmos 1818 - Pass Details

Date: 14 July 2020
Orbit: 777 x 796 km, 65.0° (Epoch: 05 August)

Event Time Altitude Azimuth Distance (km) Brightness Sun altitude
Rises 08:01:09 0° 329° (NNW) 3,307 7.0 -14.8°
Reaches altitude 10° 08:03:36 10° 331° (NNW) 2,373 6.3 -14.5°
Maximum altitude 08:09:03 71° 56° (NE) 842 3.9 -13.8°
Drops below altitude 10° 08:14:27 10° 140° (SE) 2,354 6.0 -13.1°
Sets 08:16:53 0° 143° (SE) 3,278 6.7 -12.8°
